Location: Unspecified
(0.0000°N, 0.0000°E)
Time: 14:14:51
(UTC+00:00)

THORAD DELTA 1 DEB - Pass Details

Date: 16 February 2026
Orbit: 1442 x 1568 km, 101.4° (Epoch: 22 February)

Event Time Altitude Azimuth Distance (km) Brightness Sun altitude
Exits shadow 19:36:17 21° 111° (ESE) 2,999 ? -20.1°
Drops below altitude 10° 19:41:54 10° 151° (SSE) 3,752 ? -21.5°
Sets 19:45:41 0° 166° (SSE) 4,726 ? -22.4°
